TimeEDT,TemperatureF,Dew PointF,Humidity,Sea Level PressureIn,VisibilityMPH,Wind Direction,Wind SpeedMPH,Gust SpeedMPH,PrecipitationIn,Events,Conditions,WindDirDegrees,DateUTC
12:51 AM,63.0,57.9,84,30.14,10.0,Calm,Calm,-,N/A,,Clear,0,2013-08-20 04:51:00
1:51 AM,62.1,57.0,84,30.14,10.0,Calm,Calm,-,N/A,,Clear,0,2013-08-20 05:51:00
2:51 AM,59.0,55.9,90,30.14,8.0,Calm,Calm,-,N/A,,Clear,0,2013-08-20 06:51:00
3:51 AM,60.1,55.9,86,30.14,8.0,Calm,Calm,-,N/A,,Clear,0,2013-08-20 07:51:00
4:51 AM,60.1,55.0,83,30.14,9.0,Calm,Calm,-,N/A,,Clear,0,2013-08-20 08:51:00
5:51 AM,60.1,57.0,90,30.16,6.0,Calm,Calm,-,N/A,,Clear,0,2013-08-20 09:51:00
6:51 AM,57.9,55.0,90,30.18,6.0,Calm,Calm,-,N/A,Fog,Partly Cloudy,0,2013-08-20 10:51:00
7:51 AM,61.0,57.0,87,30.20,6.0,Calm,Calm,-,N/A,,Partly Cloudy,0,2013-08-20 11:51:00
8:51 AM,64.9,59.0,81,30.20,7.0,Calm,Calm,-,N/A,,Partly Cloudy,0,2013-08-20 12:51:00
9:51 AM,71.1,61.0,70,30.22,7.0,West,3.5,-,N/A,,Partly Cloudy,270,2013-08-20 13:51:00
10:51 AM,75.0,61.0,62,30.22,10.0,SW,5.8,-,N/A,,Clear,230,2013-08-20 14:51:00
11:51 AM,78.1,55.9,46,30.22,10.0,Calm,Calm,-,N/A,,Partly Cloudy,0,2013-08-20 15:51:00
12:51 PM,79.0,55.9,45,30.21,10.0,SW,6.9,-,N/A,,Scattered Clouds,230,2013-08-20 16:51:00
1:51 PM,80.1,55.9,43,30.20,10.0,Variable,5.8,-,N/A,,Scattered Clouds,0,2013-08-20 17:51:00
2:51 PM,82.0,55.9,41,30.19,10.0,West,5.8,-,N/A,,Scattered Clouds,260,2013-08-20 18:51:00
3:51 PM,81.0,55.0,41,30.17,10.0,WSW,4.6,-,N/A,,Scattered Clouds,240,2013-08-20 19:51:00
4:51 PM,82.0,55.0,39,30.16,10.0,SSW,5.8,-,N/A,,Partly Cloudy,210,2013-08-20 20:51:00
5:51 PM,80.1,57.0,45,30.16,10.0,South,4.6,-,N/A,,Partly Cloudy,190,2013-08-20 21:51:00
6:51 PM,80.1,57.9,47,30.15,10.0,SSW,4.6,-,N/A,,Partly Cloudy,200,2013-08-20 22:51:00
7:51 PM,77.0,60.1,56,30.16,10.0,SW,3.5,-,N/A,,Scattered Clouds,230,2013-08-20 23:51:00
8:51 PM,72.0,60.1,66,30.17,10.0,Calm,Calm,-,N/A,,Partly Cloudy,0,2013-08-21 00:51:00
9:51 PM,71.1,62.1,73,30.19,10.0,Calm,Calm,-,N/A,,Clear,0,2013-08-21 01:51:00
10:51 PM,70.0,61.0,73,30.19,10.0,Calm,Calm,-,N/A,,Partly Cloudy,0,2013-08-21 02:51:00
11:51 PM,66.9,60.1,79,30.19,10.0,Calm,Calm,-,N/A,,Partly Cloudy,0,2013-08-21 03:51:00